AWE1014 KBOS-KACK

Flight info

Callsign AWE1014
Flight time 0h 23m
Altitude 10000
Route LOGAN4 DUNKK V141 ACK
Aircraft A321/M-SDE3FGHIRWY/LB1

Departure

Time 2026-05-04 20:01
Airport Boston Logan International Airport (KBOS)

Arrival

Time 2026-05-04 20:24
Airport Nantucket Memorial Airport (KACK)
Time Latitude Longitude Altitude Speed Heading
2026-05-04 19:47 42.36870 -71.01499 19 ft 0 kts 228°
2026-05-04 19:52 42.36871 -71.01498 19 ft 1 kts 228°
2026-05-04 19:52 42.36881 -71.01484 19 ft 2 kts 228°
2026-05-04 19:52 42.36890 -71.01469 19 ft 2 kts 228°
2026-05-04 19:52 42.36897 -71.01459 19 ft 2 kts 227°
2026-05-04 19:53 42.36910 -71.01450 19 ft 2 kts 188°
2026-05-04 19:53 42.36925 -71.01451 19 ft 2 kts 157°
2026-05-04 19:53 42.36933 -71.01458 19 ft 0 kts 137°
2026-05-04 19:53 42.36939 -71.01466 19 ft 0 kts 134°
2026-05-04 19:55 42.36929 -71.01453 19 ft 7 kts 135°
2026-05-04 19:56 42.36878 -71.01386 19 ft 10 kts 136°
2026-05-04 19:56 42.36837 -71.01318 19 ft 7 kts 107°
2026-05-04 19:56 42.36887 -71.01220 19 ft 15 kts 41°
2026-05-04 19:56 42.36975 -71.01120 19 ft 17 kts 35°
2026-05-04 19:57 42.37083 -71.01045 18 ft 17 kts 25°
2026-05-04 19:57 42.37196 -71.00972 18 ft 15 kts 26°
2026-05-04 19:57 42.37237 -71.00944 18 ft 0 kts 26°
2026-05-04 19:58 42.37249 -71.00937 18 ft 8 kts 26°
2026-05-04 19:58 42.37338 -71.00885 17 ft 15 kts 20°
2026-05-04 19:58 42.37443 -71.00835 17 ft 16 kts 19°
2026-05-04 19:58 42.37555 -71.00781 17 ft 17 kts 20°
2026-05-04 19:59 42.37675 -71.00723 17 ft 18 kts 19°
2026-05-04 19:59 42.37793 -71.00667 17 ft 16 kts 19°
2026-05-04 19:59 42.37837 -71.00587 17 ft 0 kts 100°
2026-05-04 20:00 42.37834 -71.00571 17 ft 10 kts 104°
2026-05-04 20:00 42.37778 -71.00474 17 ft 13 kts 202°
2026-05-04 20:01 42.37598 -71.00560 17 ft 55 kts 201°
2026-05-04 20:01 42.37024 -71.00845 18 ft 119 kts 199°
2026-05-04 20:01 42.36081 -71.01289 149 ft 158 kts 203°
2026-05-04 20:01 42.35067 -71.01742 854 ft 157 kts 197°
2026-05-04 20:02 42.33977 -71.01424 1457 ft 177 kts 148°
2026-05-04 20:02 42.33291 -70.99979 1969 ft 196 kts 121°
2026-05-04 20:02 42.32689 -70.98285 2339 ft 209 kts 124°
2026-05-04 20:02 42.31956 -70.96484 2709 ft 225 kts 126°
2026-05-04 20:03 42.31153 -70.94586 2974 ft 248 kts 126°
2026-05-04 20:03 42.30213 -70.92436 3019 ft 275 kts 126°
2026-05-04 20:03 42.29225 -70.90209 3019 ft 278 kts 126°
2026-05-04 20:03 42.28230 -70.87973 3017 ft 279 kts 126°
2026-05-04 20:04 42.27238 -70.85741 3018 ft 279 kts 126°
2026-05-04 20:04 42.26240 -70.83497 3018 ft 279 kts 126°
2026-05-04 20:04 42.25248 -70.81259 3018 ft 279 kts 126°
2026-05-04 20:04 42.24234 -70.78971 3286 ft 286 kts 126°
2026-05-04 20:05 42.23228 -70.76681 4084 ft 289 kts 122°
2026-05-04 20:05 42.22420 -70.74205 4913 ft 293 kts 114°
2026-05-04 20:05 42.21701 -70.71605 5692 ft 297 kts 112°
2026-05-04 20:05 42.20997 -70.69018 6441 ft 301 kts 112°
2026-05-04 20:06 42.20070 -70.66466 7145 ft 302 kts 132°
2026-05-04 20:06 42.18447 -70.64837 7862 ft 293 kts 165°
2026-05-04 20:06 42.16491 -70.64545 8547 ft 283 kts 192°
2026-05-04 20:06 42.14535 -70.64970 8936 ft 285 kts 195°
2026-05-04 20:07 42.12580 -70.65334 9020 ft 288 kts 191°
2026-05-04 20:07 42.10554 -70.65537 9027 ft 290 kts 188°
2026-05-04 20:07 42.08544 -70.65356 9014 ft 298 kts 168°
2026-05-04 20:07 42.06684 -70.64043 9031 ft 307 kts 144°
2026-05-04 20:08 42.05090 -70.62157 9028 ft 308 kts 140°
2026-05-04 20:08 42.03499 -70.60176 9001 ft 308 kts 140°
2026-05-04 20:08 42.01942 -70.58247 8985 ft 307 kts 140°
2026-05-04 20:08 42.00365 -70.56320 8969 ft 307 kts 141°
2026-05-04 20:09 41.98784 -70.54402 8946 ft 307 kts 141°
2026-05-04 20:09 41.97200 -70.52479 8960 ft 307 kts 141°
2026-05-04 20:09 41.95624 -70.50563 8939 ft 306 kts 140°
2026-05-04 20:09 41.94043 -70.48642 8903 ft 306 kts 141°
2026-05-04 20:10 41.92459 -70.46715 8893 ft 306 kts 141°
2026-05-04 20:10 41.90882 -70.44791 8917 ft 306 kts 140°
2026-05-04 20:10 41.89302 -70.42865 8885 ft 306 kts 141°
2026-05-04 20:10 41.87748 -70.40968 8866 ft 305 kts 140°
2026-05-04 20:11 41.86165 -70.39044 8811 ft 305 kts 141°
2026-05-04 20:11 41.84601 -70.37144 8853 ft 305 kts 140°
2026-05-04 20:11 41.83033 -70.35240 8902 ft 305 kts 140°
2026-05-04 20:11 41.81466 -70.33333 8923 ft 305 kts 141°
2026-05-04 20:12 41.79900 -70.31429 8937 ft 304 kts 141°
2026-05-04 20:12 41.78337 -70.29533 8940 ft 304 kts 141°
2026-05-04 20:12 41.76763 -70.27619 8940 ft 304 kts 141°
2026-05-04 20:12 41.75196 -70.25711 8946 ft 304 kts 141°
2026-05-04 20:13 41.73642 -70.23816 8946 ft 304 kts 141°
2026-05-04 20:13 41.72085 -70.21909 8951 ft 304 kts 141°
2026-05-04 20:13 41.70531 -70.20005 8953 ft 304 kts 141°
2026-05-04 20:13 41.68966 -70.18088 8922 ft 302 kts 141°
2026-05-04 20:14 41.67428 -70.16196 8620 ft 300 kts 141°
2026-05-04 20:14 41.65910 -70.14320 8247 ft 301 kts 141°
2026-05-04 20:14 41.64375 -70.12407 7909 ft 300 kts 141°
2026-05-04 20:14 41.62861 -70.10512 7587 ft 298 kts 141°
2026-05-04 20:15 41.61359 -70.08629 7262 ft 297 kts 141°
2026-05-04 20:15 41.59859 -70.06743 6914 ft 296 kts 141°
2026-05-04 20:15 41.58379 -70.04870 6607 ft 294 kts 141°
2026-05-04 20:15 41.56897 -70.02982 6288 ft 290 kts 141°
2026-05-04 20:16 41.55458 -70.01138 5750 ft 287 kts 141°
2026-05-04 20:16 41.54037 -69.99292 5191 ft 284 kts 141°
2026-05-04 20:16 41.52651 -69.97463 4640 ft 280 kts 141°
2026-05-04 20:16 41.51281 -69.95635 4088 ft 276 kts 141°
2026-05-04 20:17 41.49953 -69.93840 3548 ft 272 kts 141°
2026-05-04 20:17 41.48645 -69.92055 3013 ft 269 kts 141°
2026-05-04 20:17 41.47359 -69.90276 2485 ft 266 kts 141°
2026-05-04 20:17 41.46028 -69.88676 2065 ft 251 kts 158°
2026-05-04 20:18 41.44453 -69.88098 1984 ft 219 kts 187°
2026-05-04 20:18 41.43013 -69.88250 1975 ft 200 kts 194°
2026-05-04 20:18 41.41682 -69.88498 1962 ft 187 kts 195°
2026-05-04 20:18 41.40446 -69.88731 2048 ft 169 kts 195°
2026-05-04 20:19 41.39335 -69.88937 1984 ft 148 kts 202°
2026-05-04 20:19 41.38488 -69.89445 1960 ft 130 kts 217°
2026-05-04 20:19 41.37752 -69.90159 1978 ft 130 kts 223°
2026-05-04 20:19 41.37071 -69.90942 1981 ft 130 kts 225°
2026-05-04 20:20 41.36404 -69.91770 1982 ft 130 kts 226°
2026-05-04 20:20 41.35749 -69.92610 1992 ft 131 kts 226°
2026-05-04 20:20 41.35097 -69.93459 1993 ft 131 kts 227°
2026-05-04 20:20 41.34448 -69.94313 2019 ft 131 kts 227°
2026-05-04 20:21 41.33807 -69.95160 2000 ft 131 kts 227°
2026-05-04 20:21 41.33162 -69.96016 2004 ft 131 kts 227°
2026-05-04 20:21 41.31870 -69.97729 1707 ft 130 kts 226°
2026-05-04 20:22 41.31229 -69.98580 1530 ft 130 kts 227°
2026-05-04 20:22 41.30591 -69.99425 1362 ft 129 kts 227°
2026-05-04 20:22 41.29946 -70.00282 1185 ft 129 kts 226°
2026-05-04 20:22 41.29318 -70.01118 1016 ft 129 kts 227°
2026-05-04 20:23 41.28686 -70.01961 833 ft 128 kts 226°
2026-05-04 20:23 41.28048 -70.02786 643 ft 127 kts 226°
2026-05-04 20:23 41.27423 -70.03624 491 ft 127 kts 226°
2026-05-04 20:23 41.26799 -70.04452 299 ft 126 kts 226°
2026-05-04 20:24 41.26180 -70.05278 148 ft 125 kts 226°
2026-05-04 20:24 41.25577 -70.06079 47 ft 115 kts 226°
2026-05-04 20:24 41.25111 -70.06702 38 ft 71 kts 224°
2026-05-04 20:24 41.24880 -70.07006 34 ft 25 kts 225°
2026-05-04 20:25 41.24755 -70.07172 31 ft 24 kts 225°
2026-05-04 20:25 41.24750 -70.07317 30 ft 14 kts 318°
2026-05-04 20:25 41.24801 -70.07318 31 ft 0 kts 47°
2026-05-04 20:26 41.24831 -70.07278 31 ft 14 kts 44°
2026-05-04 20:26 41.24932 -70.07143 33 ft 27 kts 45°
2026-05-04 20:26 41.25080 -70.06950 35 ft 27 kts 45°
2026-05-04 20:26 41.25210 -70.06776 38 ft 25 kts 45°
2026-05-04 20:27 41.25333 -70.06609 40 ft 24 kts 45°
2026-05-04 20:27 41.25451 -70.06452 42 ft 23 kts 45°
2026-05-04 20:27 41.25563 -70.06304 44 ft 22 kts 44°
2026-05-04 20:27 41.25663 -70.06173 46 ft 16 kts 44°
2026-05-04 20:28 41.25746 -70.06171 47 ft 11 kts 324°
2026-05-04 20:28 41.25744 -70.06240 47 ft 3 kts 228°
2026-05-04 20:28 41.25736 -70.06252 47 ft 0 kts 227°